Date,TemperatureHighF,TemperatureAvgF,TemperatureLowF,DewpointHighF,DewpointAvgF,DewpointLowF,HumidityHigh,HumidityAvg,HumidityLow,PressureMaxIn,PressureMinIn,WindSpeedMaxMPH,WindSpeedAvgMPH,GustSpeedMaxMPH,PrecipitationSumIn
2013-3-1,42,40,35,31,28,24,72,63,51,29.93,29.79,11,4,16,0.00
2013-3-2,36,32,29,24,22,20,74,66,53,29.91,29.85,13,4,16,0.00
2013-3-3,40,32,27,22,19,16,77,59,42,29.93,29.84,12,5,27,0.00
2013-3-4,42,33,26,18,16,13,66,50,35,30.06,29.92,17,5,27,0.00
2013-3-5,53,40,31,32,19,11,83,46,19,30.12,29.86,7,3,14,0.00
2013-3-6,37,34,32,36,32,31,95,94,85,30.03,29.63,19,5,28,0.68
2013-3-7,48,40,33,33,29,25,86,65,41,30.20,30.03,14,5,25,0.01
2013-3-8,48,41,35,30,27,24,76,59,44,30.32,30.16,19,6,28,0.00
2013-3-9,60,45,33,29,24,21,72,47,23,30.41,30.30,10,2,13,0.00
2013-3-10,64,50,35,36,24,18,74,41,18,30.44,30.31,6,2,11,0.00
2013-3-11,60,51,42,50,45,36,96,81,66,30.32,30.05,9,2,14,0.00
2013-3-12,57,52,41,56,46,31,97,79,53,30.04,29.81,16,5,19,0.87
2013-3-13,49,40,31,32,25,18,90,57,30,30.09,29.98,13,3,26,0.00
2013-3-14,45,36,30,21,16,13,61,45,29,30.16,30.07,16,5,25,0.00
2013-3-15,58,44,29,33,23,16,70,46,28,30.12,29.89,11,2,14,0.00
2013-3-16,61,49,38,53,37,32,92,64,47,29.97,29.76,7,2,10,0.02
2013-3-17,40,37,32,35,30,25,95,77,59,30.31,29.95,6,1,9,0.00
2013-3-18,37,35,30,35,30,21,95,83,54,30.34,29.93,9,2,14,0.40
2013-3-19,58,45,35,40,29,7,96,63,14,29.98,29.80,12,3,22,0.01
2013-3-20,52,44,35,24,14,10,50,30,21,30.06,29.85,10,3,19,0.00
2013-3-21,40,32,27,30,16,7,94,52,36,29.90,29.80,14,4,21,0.00
2013-3-22,46,35,26,20,16,10,55,45,32,30.03,29.89,11,3,20,0.00
2013-3-23,53,41,29,24,21,19,69,47,30,30.10,30.00,11,3,18,0.00
2013-3-24,43,36,30,33,24,20,95,63,43,30.04,29.68,4,1,8,0.01
2013-3-25,36,33,31,35,32,30,95,95,95,29.73,29.54,7,2,9,0.57
2013-3-26,48,40,32,36,30,24,95,71,38,30.05,29.73,11,4,18,0.06
2013-3-27,48,42,36,31,28,23,73,58,41,30.17,30.03,16,5,24,0.00
2013-3-28,46,42,35,32,29,26,70,60,48,30.28,30.12,12,4,19,0.00
2013-3-29,55,46,39,33,29,25,72,53,35,30.32,30.24,15,3,18,0.00
2013-3-30,59,49,39,31,27,22,72,45,24,30.32,30.20,6,1,12,0.00
2013-3-31,54,48,44,50,41,28,97,77,49,30.20,29.84,8,2,9,0.02